Weather in Tidjikja

Mauritania     18°33′22″N   11°25′37″W
temp.,
°C
wind,
m/s
gust,
m/s
humid.,
%
clouds,
%
prec.,
mm/h
press.,
hPa
HPBL,
m
27 november, sat
sat2700:00+27se33226 0.0 101212
03:00+25s2224100 0.0 101211
06:00+24s112644 0.0 101211
09:00+27nne33225 0.0 1014125
12:00+32nne33165 0.0 10141025
15:00+33nne42155 0.0 10111924
18:00+30nne45195 0.0 101250
21:00+26ne611285 0.0 1014185
28 november, sun
sun2800:00+23ne713340 0.0 1014253
03:00+20ne712420 0.0 1013255
06:00+18ne814360 0.0 1014262
09:00+20ne912280 0.0 1017400
12:00+26ne88220 0.0 1016722
15:00+28ne77205 0.0 10131016
18:00+25ne692498 0.0 1014205
21:00+21ne71326100 0.0 1017332
29 november, mon
mon2900:00+19ne71325100 0.0 1017277
03:00+17ne7132847 0.0 1016251
06:00+16ne814356 0.0 1015245
09:00+19ene9123254 0.0 1016363
12:00+25ene88215 0.0 1015781
15:00+28ene661814 0.0 10121122
18:00+26ne562087 0.0 101378
21:00+22ene51025100 0.0 1015127
30 november, tue
tue3000:00+21ene51125100 0.0 1015180
03:00+19ene5102574 0.0 1014147
06:00+18ene61125100 0.0 1014163
09:00+21ene81123100 0.0 1015334
12:00+27e7816100 0.0 1015732
15:00+30e6614100 0.0 10121177
18:00+27ene571699 0.0 101393
21:00+24ene61119100 0.0 1015185
1 december, wed
wed100:00+23ene61219100 0.0 1015269
03:00+22ene61118100 0.0 1013222
06:00+21e61118100 0.0 1013186
09:00+23e7101598 0.0 1014318
12:00+30e7711100 0.0 1013813
15:00+31e5510100 0.0 10111301
18:00+28e4412100 0.0 101226
21:00+26ene4613100 0.0 101481